Location: Newark
(40.7830°N, 8.7430°E)
Time: 16:15:57
(UTC+00:00)

ISS - Pass Details

Date: 20 September 2019
Orbit: 411 x 421 km, 51.6° (Epoch: 15 October)

Event Time Altitude Azimuth Distance (km) Brightness Sun altitude
Rises 19:21:47 0° 250° (WSW) 2,334 0.8 -22.1°
Reaches altitude 10° 19:23:57 10° 258° (WSW) 1,475 -0.2 -22.5°
Enters shadow 19:27:05 40° 330° (NNW) 622 -2.6 -23.1°
